TimePDT,TemperatureF,Dew PointF,Humidity,Sea Level PressureIn,VisibilityMPH,Wind Direction,Wind SpeedMPH,Gust SpeedMPH,PrecipitationIn,Events,Conditions,WindDirDegrees,DateUTC
12:52 AM,70.0,41.0,35,29.62,10.0,South,17.3,-,N/A,,Clear,180,2013-04-14 07:52:00
1:52 AM,69.1,41.0,36,29.61,10.0,South,21.9,-,N/A,,Clear,190,2013-04-14 08:52:00
2:52 AM,66.9,42.1,40,29.61,10.0,South,13.8,-,N/A,,Clear,180,2013-04-14 09:52:00
3:52 AM,64.9,39.0,39,29.61,10.0,South,11.5,-,N/A,,Clear,190,2013-04-14 10:52:00
4:52 AM,64.0,35.1,34,29.62,10.0,SSE,11.5,-,N/A,,Clear,160,2013-04-14 11:52:00
5:52 AM,62.1,39.0,43,29.62,10.0,SE,5.8,-,N/A,,Clear,130,2013-04-14 12:52:00
6:52 AM,63.0,41.0,45,29.64,10.0,SSW,4.6,-,N/A,,Clear,200,2013-04-14 13:52:00
7:52 AM,68.0,37.9,33,29.65,10.0,South,12.7,-,N/A,,Clear,180,2013-04-14 14:52:00
8:52 AM,73.0,35.1,25,29.66,10.0,South,12.7,-,N/A,,Clear,180,2013-04-14 15:52:00
9:52 AM,79.0,36.0,21,29.66,10.0,SE,8.1,-,N/A,,Clear,130,2013-04-14 16:52:00
10:52 AM,82.0,35.1,18,29.65,10.0,South,17.3,26.5,N/A,,Clear,180,2013-04-14 17:52:00
11:52 AM,84.9,32.0,15,29.64,10.0,SSW,11.5,-,N/A,,Clear,210,2013-04-14 18:52:00
12:52 PM,87.1,34.0,15,29.62,10.0,South,16.1,23.0,N/A,,Clear,190,2013-04-14 19:52:00
1:52 PM,88.0,35.1,15,29.60,10.0,South,10.4,25.3,N/A,,Clear,190,2013-04-14 20:52:00
2:52 PM,88.0,37.0,16,29.57,10.0,SSW,15.0,25.3,N/A,,Clear,210,2013-04-14 21:52:00
3:52 PM,88.0,37.0,16,29.55,10.0,SW,12.7,25.3,N/A,,Clear,220,2013-04-14 22:52:00
4:52 PM,88.0,37.9,17,29.53,10.0,SW,21.9,28.8,N/A,,Clear,230,2013-04-14 23:52:00
5:52 PM,88.0,39.9,18,29.53,10.0,SW,21.9,25.3,N/A,,Clear,220,2013-04-15 00:52:00
6:52 PM,84.9,42.1,22,29.53,10.0,SSW,17.3,26.5,N/A,,Clear,210,2013-04-15 01:52:00
7:52 PM,82.9,43.0,24,29.53,10.0,SW,16.1,-,N/A,,Clear,220,2013-04-15 02:52:00
8:52 PM,77.0,45.0,32,29.55,7.0,SSE,16.1,-,N/A,,Clear,160,2013-04-15 03:52:00
9:52 PM,75.9,45.0,33,29.58,10.0,SSW,18.4,-,N/A,,Clear,210,2013-04-15 04:52:00
10:52 PM,72.0,45.0,38,29.60,10.0,South,10.4,-,N/A,,Clear,180,2013-04-15 05:52:00
11:52 PM,69.1,45.0,42,29.60,10.0,South,17.3,-,N/A,,Clear,180,2013-04-15 06:52:00